TimeCST,TemperatureF,Dew PointF,Humidity,Sea Level PressureIn,VisibilityMPH,Wind Direction,Wind SpeedMPH,Gust SpeedMPH,PrecipitationIn,Events,Conditions,WindDirDegrees,DateUTC
12:15 AM,50.0,30.2,47,29.88,10.0,North,-9999.0,-,N/A,,Clear,0,2013-02-04 06:15:00
12:35 AM,50.0,30.2,47,29.87,10.0,North,-9999.0,-,N/A,,Clear,0,2013-02-04 06:35:00
12:55 AM,50.0,28.4,43,29.86,10.0,North,-9999.0,-,N/A,,Clear,0,2013-02-04 06:55:00
1:15 AM,50.0,26.6,40,29.85,10.0,North,-9999.0,-,N/A,,Clear,0,2013-02-04 07:15:00
1:35 AM,48.2,26.6,43,29.84,10.0,North,-9999.0,-,N/A,,Clear,0,2013-02-04 07:35:00
1:55 AM,46.4,26.6,46,29.84,10.0,North,-9999.0,-,N/A,,Clear,0,2013-02-04 07:55:00
2:15 AM,42.8,26.6,53,29.84,10.0,North,-9999.0,-,N/A,,Clear,0,2013-02-04 08:15:00
2:35 AM,41.0,26.6,57,29.84,10.0,North,-9999.0,-,N/A,,Clear,0,2013-02-04 08:35:00
2:55 AM,42.8,26.6,53,29.84,10.0,North,-9999.0,-,N/A,,Clear,0,2013-02-04 08:55:00
3:15 AM,42.8,26.6,53,29.84,10.0,North,-9999.0,-,N/A,,Clear,0,2013-02-04 09:15:00
4:55 AM,32.0,23.0,69,29.85,10.0,North,-9999.0,-,N/A,,Clear,0,2013-02-04 10:55:00
5:15 AM,35.6,24.8,65,29.86,10.0,North,-9999.0,-,N/A,,Clear,0,2013-02-04 11:15:00
5:35 AM,37.4,23.0,56,29.87,10.0,North,-9999.0,-,N/A,,Clear,0,2013-02-04 11:35:00
6:15 AM,37.4,23.0,56,29.89,10.0,North,-9999.0,-,N/A,,Clear,0,2013-02-04 12:15:00
6:35 AM,37.4,21.2,52,29.90,10.0,North,-9999.0,-,N/A,,Clear,0,2013-02-04 12:35:00
6:55 AM,35.6,21.2,56,29.91,10.0,North,-9999.0,-,N/A,,Clear,0,2013-02-04 12:55:00
7:15 AM,35.6,21.2,56,29.93,10.0,North,-9999.0,-,N/A,,Clear,0,2013-02-04 13:15:00
7:35 AM,33.8,21.2,60,29.94,10.0,North,-9999.0,-,N/A,,Clear,0,2013-02-04 13:35:00
7:55 AM,33.8,21.2,60,29.95,10.0,North,-9999.0,-,N/A,,Clear,0,2013-02-04 13:55:00
8:15 AM,35.6,19.4,52,29.95,10.0,North,-9999.0,-,N/A,,Clear,0,2013-02-04 14:15:00
8:35 AM,37.4,21.2,52,29.96,10.0,North,-9999.0,-,N/A,,Clear,0,2013-02-04 14:35:00
8:55 AM,39.2,19.4,45,29.96,10.0,North,-9999.0,-,N/A,,Clear,0,2013-02-04 14:55:00
9:15 AM,42.8,19.4,39,29.96,10.0,North,-9999.0,-,N/A,,Clear,0,2013-02-04 15:15:00
9:35 AM,44.6,19.4,37,29.98,10.0,North,-9999.0,-,N/A,,Clear,0,2013-02-04 15:35:00
9:55 AM,44.6,19.4,37,29.99,10.0,North,-9999.0,-,N/A,,Clear,0,2013-02-04 15:55:00
10:15 AM,44.6,19.4,37,30.00,10.0,North,-9999.0,-,N/A,,Clear,0,2013-02-04 16:15:00
10:35 AM,46.4,19.4,34,30.00,10.0,North,-9999.0,-,N/A,,Clear,0,2013-02-04 16:35:00
10:55 AM,48.2,19.4,32,30.00,10.0,North,-9999.0,-,N/A,,Clear,0,2013-02-04 16:55:00
11:15 AM,50.0,21.2,32,30.00,10.0,North,-9999.0,-,N/A,,Clear,0,2013-02-04 17:15:00
11:35 AM,51.8,21.2,30,30.02,10.0,North,-9999.0,-,N/A,,Clear,0,2013-02-04 17:35:00
11:55 AM,51.8,21.2,30,30.00,10.0,North,-9999.0,-,N/A,,Clear,0,2013-02-04 17:55:00
12:15 PM,51.8,21.2,30,30.00,10.0,North,-9999.0,-,N/A,,Clear,0,2013-02-04 18:15:00
12:35 PM,53.6,21.2,28,30.00,10.0,North,-9999.0,-,N/A,,Clear,0,2013-02-04 18:35:00
12:55 PM,53.6,21.2,28,29.99,10.0,North,-9999.0,-,N/A,,Clear,0,2013-02-04 18:55:00
1:15 PM,55.4,21.2,26,29.99,10.0,North,-9999.0,-,N/A,,Clear,0,2013-02-04 19:15:00
1:35 PM,55.4,21.2,26,29.98,10.0,North,-9999.0,-,N/A,,Clear,0,2013-02-04 19:35:00
1:55 PM,57.2,21.2,25,29.97,10.0,North,-9999.0,-,N/A,,Clear,0,2013-02-04 19:55:00
2:15 PM,57.2,19.4,23,29.97,10.0,North,-9999.0,-,N/A,,Clear,0,2013-02-04 20:15:00
2:35 PM,57.2,19.4,23,29.96,10.0,North,-9999.0,-,N/A,,Clear,0,2013-02-04 20:35:00
2:55 PM,59.0,19.4,22,29.96,10.0,North,-9999.0,-,N/A,,Clear,0,2013-02-04 20:55:00
3:15 PM,59.0,17.6,20,29.96,10.0,North,-9999.0,-,N/A,,Clear,0,2013-02-04 21:15:00
3:35 PM,59.0,17.6,20,29.95,10.0,North,-9999.0,-,N/A,,Clear,0,2013-02-04 21:35:00
3:55 PM,57.2,17.6,21,29.95,10.0,North,-9999.0,-,N/A,,Clear,0,2013-02-04 21:55:00
4:15 PM,59.0,17.6,20,29.95,10.0,North,-9999.0,-,N/A,,Clear,0,2013-02-04 22:15:00
4:35 PM,59.0,15.8,19,29.95,10.0,North,-9999.0,-,N/A,,Clear,0,2013-02-04 22:35:00
4:55 PM,59.0,17.6,20,29.94,10.0,North,-9999.0,-,N/A,,Clear,0,2013-02-04 22:55:00
5:15 PM,55.4,17.6,23,29.94,10.0,North,-9999.0,-,N/A,,Clear,0,2013-02-04 23:15:00
5:35 PM,55.4,17.6,23,29.94,10.0,North,-9999.0,-,N/A,,Clear,0,2013-02-04 23:35:00
5:55 PM,55.4,15.8,21,29.94,10.0,North,-9999.0,-,N/A,,Clear,0,2013-02-04 23:55:00
6:15 PM,53.6,17.6,24,29.95,10.0,North,-9999.0,-,N/A,,Clear,0,2013-02-05 00:15:00
6:35 PM,51.8,17.6,26,29.95,10.0,North,-9999.0,-,N/A,,Clear,0,2013-02-05 00:35:00
6:55 PM,51.8,17.6,26,29.96,10.0,North,-9999.0,-,N/A,,Clear,0,2013-02-05 00:55:00
7:15 PM,48.2,17.6,30,29.96,10.0,North,-9999.0,-,N/A,,Clear,0,2013-02-05 01:15:00
7:35 PM,44.6,17.6,34,29.97,10.0,North,-9999.0,-,N/A,,Clear,0,2013-02-05 01:35:00
7:55 PM,42.8,17.6,36,29.98,10.0,North,-9999.0,-,N/A,,Clear,0,2013-02-05 01:55:00
8:15 PM,42.8,17.6,36,29.98,10.0,North,-9999.0,-,N/A,,Clear,0,2013-02-05 02:15:00
8:55 PM,35.6,19.4,52,29.97,10.0,North,-9999.0,-,N/A,,Clear,0,2013-02-05 02:55:00
9:15 PM,35.6,17.6,48,29.97,10.0,North,-9999.0,-,N/A,,Clear,0,2013-02-05 03:15:00
9:35 PM,37.4,17.6,45,29.97,10.0,North,-9999.0,-,N/A,,Clear,0,2013-02-05 03:35:00
9:55 PM,35.6,19.4,52,29.97,10.0,North,-9999.0,-,N/A,,Clear,0,2013-02-05 03:55:00
10:15 PM,37.4,17.6,45,29.98,10.0,North,-9999.0,-,N/A,,Clear,0,2013-02-05 04:15:00
10:35 PM,35.6,19.4,52,29.97,10.0,North,-9999.0,-,N/A,,Clear,0,2013-02-05 04:35:00
10:55 PM,35.6,19.4,52,29.97,10.0,North,-9999.0,-,N/A,,Clear,0,2013-02-05 04:55:00
11:15 PM,35.6,17.6,48,29.96,10.0,North,-9999.0,-,N/A,,Clear,0,2013-02-05 05:15:00
11:35 PM,35.6,17.6,48,29.96,10.0,North,-9999.0,-,N/A,,Clear,0,2013-02-05 05:35:00
11:55 PM,35.6,17.6,48,29.95,10.0,North,-9999.0,-,N/A,,Clear,0,2013-02-05 05:55:00